This is the latest recevied weather packets stored in our database for station/object W2TAO. If no packets are shown the sender has not sent any weather packets the latest 10 day(s).
| Time | Temp. | Humidity | Pressure | Rain* | Wind** | Luminosity | Snow |
|---|---|---|---|---|---|---|---|
| 1778157268 | 6.67° C | 73% | 1013 hPa | 0 mm | - | 52 W/m² | - |
| 1778156964 | 6.67° C | 76% | 1012.8 hPa | 0 mm | - | 49 W/m² | - |
| 1778156659 | 6.67° C | 74% | 1012.8 hPa | 0 mm | - | 61 W/m² | - |
| 1778156356 | 6.67° C | 77% | 1013 hPa | 0 mm | - | 53 W/m² | - |
| 1778156051 | 6.67° C | 76% | 1013.1 hPa | 0 mm | - | 45 W/m² | - |
| 1778155748 | 6.67° C | 75% | 1012.9 hPa | 0 mm | - | 44 W/m² | - |
| 1778155444 | 6.11° C | 77% | 1013 hPa | 0 mm | - | 60 W/m² | - |
| 1778155141 | 6.11° C | 78% | 1012.9 hPa | 0 mm | - | 73 W/m² | - |
| 1778154836 | 6.67° C | 79% | 1012.7 hPa | 0 mm | - | 57 W/m² | - |
| 1778154532 | 6.67° C | 80% | 1012.6 hPa | 0 mm | - | 66 W/m² | - |
| 1778154229 | 6.11° C | 84% | 1012.5 hPa | 0 mm | - | 82 W/m² | - |
| 1778153927 | 6.11° C | 86% | 1012.6 hPa | 0 mm | - | 62 W/m² | - |
| 1778153624 | 6.11° C | 83% | 1012.7 hPa | 0 mm | - | 41 W/m² | - |
| 1778153321 | 6.67° C | 85% | 1012.6 hPa | 0 mm | - | 42 W/m² | - |
| 1778153018 | 5.56° C | 88% | 1012.6 hPa | 0 mm | - | 79 W/m² | - |
| 1778152716 | 5.56° C | 93% | 1012.7 hPa | 0 mm | - | 47 W/m² | - |
| 1778152413 | 5.56° C | 93% | 1012.6 hPa | 0 mm | - | 39 W/m² | - |
| 1778152108 | 5.56° C | 96% | 1012.1 hPa | 0 mm | - | 36 W/m² | - |
| 1778151805 | 5.56° C | 97% | 1012.2 hPa | 0 mm | - | 34 W/m² | - |
| 1778151502 | 5° C | 97% | 1012.3 hPa | 0 mm | - | 33 W/m² | - |
| 1778151198 | 5° C | 97% | 1012.3 hPa | 0 mm | - | 31 W/m² | - |
| 1778150895 | 5.56° C | 98% | 1012.2 hPa | 0 mm | - | 31 W/m² | - |
| 1778150592 | 5° C | 98% | 1012.3 hPa | 0 mm | - | 28 W/m² | - |
| 1778150288 | 5° C | 98% | 1012 hPa | 0 mm | - | 25 W/m² | - |
| 1778149984 | 5.56° C | 97% | 1011.9 hPa | 0 mm | - | 27 W/m² | - |
* Rain latest hour (hover to see other rain measurements)
** Current wind speed in m/s (hover to see current wind gust speed)